Location: Casteau
(50.5142°N, 4.0161°E)
Time: 15:12:56
(UTC+00:00)

Okean 2 Rocket - Pass Details

Date: 18 September 2020
Orbit: 616 x 642 km, 82.5° (Epoch: 23 October)

Event Time Altitude Azimuth Distance (km) Brightness Sun altitude
Rises 19:41:13 0° 196° (SSW) 2,934 6.4 -17.8°
Reaches altitude 10° 19:43:28 10° 200° (SSW) 2,027 5.6 -18.2°
Maximum altitude 19:47:57 65° 283° (WNW) 704 3.5 -18.8°
Drops below altitude 10° 19:52:25 10° 5° (N) 2,029 6.0 -19.4°
Sets 19:54:41 0° 9° (N) 2,938 6.8 -19.8°
